Wind_Speed
11 11 11 11 11 11 10 10 10 9 9 8 8 7 7 7 7 7 6 6 6 6 6 5 5 4 4 4 4 4 5 5 5 5 4 5 5 4 4 3 3 3 3
13 13 13 13 13 12 12 12 12 11 11 10 10 9 9 8 8 8 7 7 7 7 7 6 6 5 5 5 5 5 5 5 6 5 5 5 5 5 4 4 4 3 3
14 14 14 14 14 14 14 14 14 13 13 12 11 11 11 11 10 10 9 8 8 8 8 7 7 6 6 6 6 5 6 6 6 6 6 6 5 5 5 5 5 4 4
16 16 16 16 16 16 16 16 16 15 15 14 14 13 13 13 12 12 11 11 10 10 10 9 8 8 7 7 7 7 7 7 7 7 7 7 7 7 6 6 6 5 5
17 17 18 17 18 18 18 18 18 18 17 17 17 16 15 15 14 14 13 13 12 12 12 11 10 10 9 9 8 8 8 8 8 8 8 8 7 7 7 7 7 6 6
19 19 19 19 19 19 19 19 19 19 19 19 18 18 17 17 16 15 15 15 14 14 14 13 13 12 11 11 10 10 9 9 9 10 10 10 9 9 9 8 8 7 7
21 21 20 20 20 20 20 20 20 20 20 20 20 19 19 19 18 18 17 17 16 15 15 15 15 14 14 13 13 12 11 11 10 10 11 11 10 10 10 10 9 8 8
22 22 22 22 22 22 21 21 21 21 21 21 21 20 20 19 19 19 19 19 19 18 17 17 17 16 16 15 15 14 14 13 13 13 12 12 12 12 11 11 11 10 10
24 24 24 24 24 24 23 23 22 22 22 22 22 22 21 21 21 21 20 20 20 20 19 19 18 18 18 17 17 16 16 15 15 15 15 14 14 14 14 13 13 12 12
25 25 25 25 25 26 25 25 24 24 23 24 24 24 23 23 23 23 22 22 22 21 21 21 21 20 20 20 19 19 18 18 17 17 16 16 16 16 16 16 15 15 15
26 26 27 27 27 27 27 27 26 25 25 25 25 25 25 25 25 25 24 24 24 23 23 23 22 22 22 22 22 21 21 20 19 19 18 18 18 17 17 17 17 18 17
28 28 28 28 28 28 28 28 28 28 27 26 26 26 26 26 26 26 26 26 25 25 25 25 24 24 24 23 23 23 23 22 22 21 21 20 20 20 20 19 19 20 20
30 30 30 30 30 30 30 30 30 30 30 29 29 28 28 28 28 28 28 28 28 27 27 26 26 26 25 25 25 24 25 25 24 23 23 23 23 22 22 22 22 22 22
32 32 32 32 33 32 32 32 32 32 32 31 31 30 30 30 30 29 29 30 30 29 29 28 28 28 27 27 27 26 26 26 26 25 25 25 25 25 25 25 25 25 24
34 35 35 35 35 35 34 34 35 35 34 34 33 33 32 32 32 31 31 31 31 31 30 30 30 30 29 29 29 28 28 28 28 27 27 27 27 28 28 27 27 26 26
36 37 37 37 37 37 37 36 36 37 36 35 35 35 34 34 34 34 33 33 32 32 32 31 31 31 31 31 30 30 30 30 30 30 29 29 29 29 29 29 29 28 28
38 39 39 39 39 39 39 38 38 38 37 37 37 37 37 36 35 35 35 34 34 33 33 32 32 32 32 32 32 31 31 31 32 32 31 31 31 30 30 30 30 30 29
40 41 41 40 40 40 40 40 39 39 39 39 38 38 38 38 37 37 37 37 36 36 35 34 34 34 34 34 33 33 33 32 32 33 33 33 32 32 31 31 31 31 31
41 41 42 42 41 41 41 41 41 41 41 41 40 40 40 40 39 39 39 38 38 37 37 36 36 36 35 35 35 34 34 34 34 34 34 34 34 33 33 32 32 32 32
42 42 42 42 42 42 43 43 43 43 43 43 43 43 41 42 42 41 41 40 40 39 39 38 38 37 37 36 36 36 36 36 35 35 34 34 35 34 34 33 33 33 33
43 43 43 43 43 43 43 43 44 45 44 45 45 45 44 43 43 43 43 43 42 41 41 40 40 39 38 38 37 37 38 38 37 37 36 36 35 35 35 34 34 34 34
44 44 44 44 44 44 44 45 45 45 46 46 46 46 47 46 45 45 45 45 44 43 43 42 42 41 40 40 40 39 39 39 39 38 38 37 37 37 36 36 35 35 36
43 44 45 45 46 46 47 47 48 48 47 48 48 48 47 48 48 46 46 46 46 45 45 44 43 43 43 42 42 41 41 40 40 40 39 39 38 38 38 38 37 37 38
44 44 44 45 46 47 48 49 49 49 49 49 50 50 50 50 50 49 48 47 47 48 47 46 45 45 44 43 43 43 42 42 40 40 40 40 40 40 39 40 39 39 38
44 44 45 46 47 48 48 49 50 50 50 50 51 51 52 52 52 52 51 50 49 49 48 48 47 47 45 44 44 44 43 42 41 41 41 41 41 41 40 40 40 40 40
45 45 46 46 46 47 48 49 50 50 51 51 52 52 53 53 53 53 54 53 53 51 50 49 49 49 47 46 46 45 45 44 43 42 42 42 42 41 41 41 41 42 41
Wind_Direction
257 256 253 250 249 248 247 246 244 241 239 238 238 239 239 237 234 231 231 232 232 234 236 236 232 228 225 225 222 217 213 210 205 198 197 197 193 188 189 187 189 195 196
258 256 254 252 250 250 249 248 246 243 241 240 241 241 241 240 238 235 233 232 232 234 234 234 233 230 226 225 223 222 219 216 212 206 205 206 203 199 203 206 210 212 213
256 254 253 251 251 251 249 248 247 246 243 242 242 242 242 242 241 239 237 237 236 235 234 233 234 234 232 231 233 231 226 222 219 215 214 212 214 214 215 216 221 224 225
254 253 251 251 251 251 249 248 248 247 247 246 245 244 244 244 242 242 241 241 240 239 237 235 237 238 238 237 236 237 234 229 226 223 221 219 220 221 224 225 229 232 234
253 252 251 251 251 251 250 249 249 247 248 248 247 246 245 245 244 243 242 242 242 242 239 239 239 241 241 240 239 240 239 236 233 231 227 225 226 227 230 234 237 239 240
254 253 252 251 250 250 249 249 248 246 247 248 247 247 245 245 245 244 243 243 243 243 242 241 240 241 242 241 241 241 240 237 236 234 231 231 233 236 239 242 243 246 247
255 253 252 252 251 250 249 249 247 246 247 247 247 247 246 246 246 245 244 244 244 245 244 242 242 242 242 243 243 243 242 240 238 236 234 236 238 241 243 246 245 248 251
255 253 252 251 250 250 250 249 248 247 247 247 246 246 245 246 246 245 245 245 245 246 247 245 244 243 244 244 244 244 244 243 242 240 239 241 243 245 246 248 249 250 253
254 253 252 252 251 250 250 249 249 248 247 246 245 245 246 246 246 246 246 245 246 246 247 247 246 245 246 246 246 246 246 245 245 245 244 245 248 249 249 251 252 254 255
254 253 252 251 251 251 250 249 249 249 247 246 246 246 246 247 246 246 247 247 248 248 248 248 248 246 246 246 247 247 247 247 247 248 248 249 250 251 252 253 254 255 255
255 254 253 251 250 250 250 250 250 250 249 247 247 247 246 246 246 247 248 248 249 249 249 249 248 248 248 247 247 247 247 248 248 249 250 250 252 253 253 254 256 257 257
256 255 254 253 252 251 251 251 250 250 250 249 248 248 247 246 247 248 249 249 249 249 249 249 249 249 249 249 248 248 248 249 249 250 250 251 252 254 255 256 258 260 261
256 256 255 254 254 253 252 252 251 251 250 250 250 249 249 248 248 248 249 249 249 250 249 249 250 250 250 250 251 250 249 249 250 251 251 252 253 255 256 257 258 260 262
257 256 256 254 254 253 252 252 251 251 251 250 250 250 250 249 249 249 249 249 249 249 249 249 250 250 250 250 251 251 251 251 251 252 252 252 253 255 257 259 260 261 263
259 258 257 256 254 253 253 252 251 251 251 250 251 251 251 250 249 249 249 249 249 249 250 249 249 250 251 251 251 251 252 253 253 253 254 255 254 255 257 259 261 262 264
260 259 258 257 255 254 253 253 252 252 251 251 251 251 251 251 250 249 248 248 249 249 250 250 250 250 251 251 251 251 252 253 254 254 255 256 257 257 257 259 260 262 263
260 259 258 258 257 254 253 253 252 252 251 251 251 251 250 250 250 249 248 248 248 249 250 251 251 251 250 251 251 251 252 253 254 255 256 257 258 258 259 260 260 261 263
260 260 259 257 257 255 254 253 251 251 250 251 251 250 249 249 249 249 248 248 248 248 249 250 252 251 251 251 252 252 252 253 254 255 256 257 258 258 259 260 261 261 262
261 260 259 258 257 255 254 253 252 250 249 249 250 250 249 248 248 248 248 248 248 249 249 250 251 251 251 252 252 253 253 254 254 255 256 256 257 258 259 260 260 261 262
261 260 259 259 257 255 254 253 252 251 250 249 249 249 250 249 248 247 247 247 247 248 249 250 251 251 251 252 253 253 254 254 255 255 255 256 257 258 258 259 260 261 262
260 260 259 258 257 256 255 254 253 251 250 249 249 249 248 248 248 248 247 247 247 248 249 250 251 251 251 253 254 254 254 255 255 256 256 257 257 258 259 259 260 261 262
261 260 260 259 258 257 256 254 253 252 251 250 249 249 248 248 248 248 247 246 247 248 249 250 251 251 252 252 253 254 254 255 255 256 256 257 258 258 259 259 261 262 261
262 261 260 259 258 257 256 255 253 253 252 251 250 249 249 248 247 247 247 246 246 246 248 249 250 252 252 252 252 254 254 255 256 255 255 256 258 258 259 260 261 262 263
262 261 260 260 259 258 257 256 254 253 252 250 250 250 249 248 248 247 247 247 246 246 247 247 248 251 252 252 253 254 255 255 255 256 256 256 257 258 260 261 261 262 263
263 262 261 260 260 259 258 256 255 254 252 250 250 250 249 249 248 248 247 246 246 247 247 248 247 249 250 252 253 254 254 255 255 255 256 257 257 259 259 260 260 261 263
264 263 262 261 260 259 259 257 255 254 252 252 251 250 249 249 249 248 247 247 246 247 247 248 248 248 249 251 252 252 253 254 255 255 256 257 257 257 259 260 260 262 263
Height
5834 5835 5835 5836 5837 5838 5838 5839 5840 5841 5842 5843 5844 5844 5845 5846 5847 5848 5849 5849 5850 5851 5852 5853 5854 5854 5855 5856 5857 5858 5858 5859 5860 5861 5861 5862 5863 5864 5865 5865 5866 5866 5867
5832 5832 5833 5834 5835 5836 5836 5837 5838 5839 5840 5841 5842 5843 5844 5844 5845 5846 5847 5848 5849 5850 5851 5852 5853 5853 5854 5855 5856 5857 5857 5858 5859 5860 5861 5862 5863 5863 5864 5865 5865 5866 5867
5829 5829 5830 5831 5832 5833 5834 5835 5836 5837 5838 5839 5840 5841 5841 5842 5843 5845 5846 5847 5848 5849 5850 5850 5851 5852 5853 5854 5855 5856 5857 5857 5858 5859 5860 5861 5862 5863 5864 5864 5865 5865 5866
5826 5826 5827 5828 5829 5830 5831 5832 5833 5834 5835 5836 5837 5838 5839 5840 5841 5842 5843 5844 5846 5847 5848 5849 5850 5851 5852 5853 5854 5854 5855 5856 5857 5858 5859 5860 5861 5862 5863 5863 5864 5865 5865
5822 5823 5823 5824 5825 5826 5827 5828 5829 5831 5832 5833 5834 5835 5836 5837 5838 5840 5841 5842 5843 5844 5846 5847 5848 5849 5850 5851 5852 5853 5854 5855 5856 5857 5858 5859 5860 5860 5861 5862 5863 5863 5864
5818 5819 5820 5820 5821 5822 5824 5825 5826 5827 5828 5829 5831 5832 5833 5834 5835 5837 5838 5839 5840 5842 5843 5844 5846 5847 5848 5849 5850 5851 5852 5853 5854 5855 5856 5857 5858 5859 5860 5860 5861 5862 5862
5814 5814 5815 5816 5817 5818 5819 5820 5822 5823 5824 5825 5827 5828 5829 5831 5832 5833 5835 5836 5837 5839 5840 5841 5843 5844 5845 5846 5848 5849 5850 5851 5852 5853 5854 5855 5856 5857 5857 5858 5859 5860 5861
5809 5810 5811 5812 5813 5814 5815 5816 5817 5819 5820 5821 5823 5824 5825 5827 5828 5830 5831 5833 5834 5835 5837 5838 5840 5841 5842 5843 5845 5846 5847 5849 5850 5851 5852 5853 5854 5855 5855 5856 5857 5858 5859
5804 5805 5806 5807 5808 5809 5810 5812 5813 5814 5815 5817 5818 5819 5821 5822 5824 5825 5827 5828 5830 5831 5833 5834 5836 5837 5839 5840 5841 5843 5844 5845 5847 5848 5849 5850 5851 5852 5853 5853 5854 5855 5856
5799 5800 5801 5802 5803 5804 5806 5807 5808 5809 5810 5812 5813 5815 5816 5818 5819 5821 5822 5824 5826 5827 5829 5830 5832 5833 5835 5836 5838 5839 5841 5842 5843 5845 5846 5847 5848 5849 5850 5850 5851 5852 5853
5793 5794 5795 5796 5797 5799 5800 5801 5803 5804 5805 5807 5808 5810 5811 5813 5814 5816 5817 5819 5821 5822 5824 5826 5827 5829 5830 5832 5833 5835 5836 5838 5839 5841 5842 5843 5844 5845 5846 5847 5848 5849 5850
5787 5788 5789 5790 5791 5792 5794 5795 5797 5798 5800 5801 5803 5804 5805 5807 5809 5810 5812 5814 5815 5817 5819 5820 5822 5824 5826 5827 5829 5830 5832 5833 5835 5837 5838 5839 5840 5841 5842 5843 5844 5845 5846
5780 5781 5782 5783 5784 5786 5787 5789 5790 5792 5793 5795 5796 5798 5799 5801 5803 5804 5806 5808 5810 5811 5813 5815 5817 5818 5820 5822 5824 5825 5827 5828 5830 5832 5833 5835 5836 5837 5838 5839 5840 5841 5841
5773 5774 5775 5776 5777 5779 5780 5781 5783 5784 5786 5787 5789 5791 5792 5794 5796 5798 5799 5801 5803 5805 5807 5809 5811 5812 5815 5816 5818 5820 5821 5823 5825 5826 5828 5829 5831 5832 5833 5834 5835 5836 5837
5765 5765 5766 5768 5769 5770 5772 5773 5775 5776 5778 5780 5781 5783 5785 5787 5789 5790 5792 5794 5796 5798 5800 5802 5804 5806 5808 5810 5812 5814 5816 5817 5819 5821 5822 5824 5825 5826 5827 5828 5829 5830 5831
5755 5756 5757 5759 5760 5761 5763 5765 5766 5768 5769 5771 5773 5775 5776 5779 5781 5783 5785 5787 5789 5791 5793 5795 5797 5799 5801 5803 5805 5807 5809 5811 5813 5814 5816 5817 5819 5820 5821 5822 5823 5824 5825
5746 5747 5748 5749 5750 5752 5753 5755 5757 5759 5760 5762 5764 5766 5768 5770 5772 5774 5776 5779 5781 5783 5785 5787 5790 5792 5794 5796 5798 5800 5802 5804 5806 5807 5809 5810 5812 5814 5815 5816 5817 5818 5819
5735 5736 5737 5738 5740 5742 5743 5745 5747 5749 5751 5753 5755 5756 5758 5760 5763 5765 5768 5770 5772 5775 5777 5780 5782 5784 5786 5788 5790 5793 5795 5796 5798 5800 5802 5804 5805 5807 5808 5809 5810 5812 5813
5724 5725 5726 5728 5729 5731 5732 5734 5736 5738 5740 5742 5744 5746 5749 5751 5753 5756 5758 5761 5764 5766 5769 5771 5773 5776 5778 5780 5782 5784 5786 5789 5791 5792 5794 5796 5797 5799 5801 5802 5804 5805 5806
5713 5714 5715 5717 5718 5720 5721 5723 5725 5727 5729 5732 5734 5736 5738 5741 5743 5745 5748 5751 5754 5757 5760 5762 5765 5767 5769 5771 5774 5776 5778 5780 5782 5784 5786 5788 5789 5791 5793 5795 5796 5797 5798
5702 5703 5704 5705 5707 5708 5710 5711 5714 5716 5718 5721 5723 5725 5727 5729 5732 5735 5738 5741 5744 5747 5750 5753 5756 5758 5760 5763 5765 5767 5769 5772 5774 5776 5778 5780 5782 5783 5785 5787 5788 5789 5791
5691 5692 5693 5694 5695 5696 5698 5699 5702 5704 5706 5709 5711 5713 5716 5718 5721 5724 5727 5730 5733 5737 5740 5743 5746 5748 5750 5753 5756 5758 5760 5763 5765 5767 5769 5771 5773 5775 5776 5778 5780 5781 5782
5679 5680 5681 5682 5683 5684 5685 5687 5689 5692 5694 5697 5699 5702 5704 5706 5709 5712 5716 5719 5722 5725 5729 5732 5735 5738 5740 5743 5746 5748 5750 5753 5756 5758 5759 5762 5764 5765 5767 5769 5771 5772 5774
5668 5668 5669 5669 5670 5671 5672 5674 5676 5679 5682 5684 5686 5689 5691 5694 5697 5700 5703 5707 5710 5714 5717 5721 5724 5727 5729 5732 5735 5737 5740 5743 5746 5748 5750 5752 5754 5756 5758 5760 5761 5763 5764
5655 5656 5656 5657 5657 5658 5659 5661 5663 5665 5668 5670 5672 5675 5678 5681 5684 5687 5690 5694 5698 5701 5705 5709 5712 5715 5718 5721 5724 5727 5729 5732 5735 5738 5741 5743 5745 5746 5748 5750 5752 5753 5754
5642 5642 5643 5644 5644 5645 5646 5647 5649 5651 5653 5656 5659 5661 5664 5667 5670 5674 5677 5680 5684 5689 5693 5696 5700 5703 5706 5709 5713 5716 5718 5721 5724 5727 5730 5732 5734 5736 5738 5740 5741 5743 5744